1518706800.66,56431,12.06,73094.5,-8.85,-43.49,-43.15,0,*59
1518706801.9,56432,12.06,73090.8,-8.87,-43.61,-43.35,0,*50
1518706803.17,56433,12.06,73096.5,-8.87,-43.41,-43.21,0,*56
1518706804.4,56434,12.06,73094.8,-8.89,-43.61,-43.29,0,*55
1518706805.64,56435,12.06,73092.3,-8.89,-43.41,-43.21,0,*5E
1518706806.85,56436,12.06,73090.0,-8.89,-43.41,-43.15,0,*5A
1518706808.11,56437,12.06,73092.8,-8.89,-43.55,-43.21,0,*59
1518706809.35,56438,12.06,73092.3,-8.89,-43.55,-43.15,0,*51
1518706810.55,56439,12.06,73094.3,-8.89,-43.35,-43.01,0,*53
1518706811.79,56440,12.06,73092.5,-8.89,-43.41,-43.21,0,*5C
1518706813.05,56441,12.06,73090.8,-8.89,-43.55,-43.21,0,*58
1518706814.31,56442,12.06,73092.8,-8.91,-43.67,-43.41,0,*55
1518706815.56,56443,12.06,73094.5,-8.91,-43.49,-43.21,0,*5E
1518706816.82,56444,12.06,73092.8,-8.91,-43.21,-43.01,0,*55
1518706818.07,56445,12.06,73092.0,-8.91,-43.29,-43.01,0,*5C
1518706819.3,56446,12.06,73094.5,-8.89,-43.21,-43.01,0,*5E
1518706820.54,56447,12.06,73094.3,-8.89,-43.35,-42.95,0,*56
1518706821.82,56448,12.06,73092.8,-8.91,-43.21,-43.09,0,*51
1518706823.08,56449,12.06,73088.3,-8.91,-43.41,-43.21,0,*5C
1518706824.29,56450,12.06,73094.8,-8.89,-43.41,-43.01,0,*5F
1518706825.54,56451,12.06,73094.3,-8.91,-43.29,-43.01,0,*59
1518706826.8,56452,12.06,73092.3,-8.91,-43.49,-43.09,0,*54
1518706828.06,56453,12.06,73092.5,-8.91,-43.49,-43.21,0,*5F
1518706829.32,56454,12.06,73088.0,-8.91,-43.67,-43.49,0,*5A
1518706830.56,56455,12.06,73090.5,-8.91,-43.61,-43.41,0,*55
1518706831.82,56456,12.06,73094.0,-8.91,-43.49,-43.09,0,*50
1518706833.08,56457,12.06,73088.5,-8.91,-43.41,-43.09,0,*59
1518706834.33,56458,12.06,73094.3,-8.91,-43.49,-43.29,0,*5C
1518706835.58,56459,12.06,73092.0,-8.91,-44.07,-43.81,0,*52
1518706836.84,56460,12.06,73090.8,-8.91,-43.81,-43.61,0,*5F
1518706838.07,56461,12.06,73088.8,-8.95,-43.87,-43.49,0,*56
1518706839.31,56462,12.06,73088.5,-8.95,-43.75,-43.49,0,*58
1518706840.57,56463,12.06,73088.8,-8.95,-43.87,-43.67,0,*58
1518706841.81,56464,12.06,73088.3,-8.93,-43.75,-43.55,0,*55
1518706843.07,56465,12.06,73088.8,-8.95,-43.67,-43.35,0,*57
1518706844.29,56466,12.06,73094.8,-8.97,-43.75,-43.41,0,*56
1518706845.5,56467,12.06,73088.8,-8.93,-43.49,-43.15,0,*5D
1518706846.76,56468,12.06,73090.5,-8.95,-43.67,-43.49,0,*51
1518706848.03,56469,12.06,73088.8,-8.95,-43.75,-43.55,0,*5E
1518706849.31,56470,12.06,73090.3,-8.95,-43.67,-43.29,0,*5E
1518706850.55,56471,12.06,73088.8,-8.97,-43.41,-43.21,0,*51
1518706851.81,56472,12.06,73090.3,-8.97,-43.55,-43.21,0,*57
1518706853.05,56473,12.06,73090.0,-8.97,-43.61,-43.21,0,*51
1518706854.29,56474,12.06,73092.5,-8.97,-43.61,-43.21,0,*56
1518706855.5,56475,12.06,73088.0,-8.97,-43.61,-43.35,0,*52
1518706856.74,56476,12.06,73090.8,-8.97,-43.41,-43.21,0,*56
1518706857.95,56477,12.06,73090.0,-8.97,-43.75,-43.75,0,*51
1518706859.2,56478,12.06,73092.0,-8.97,-43.61,-43.55,0,*59
1518706860.44,56479,12.06,73090.0,-8.97,-43.61,-43.55,0,*58
1518706861.66,56480,12.06,73092.0,-8.97,-43.61,-43.15,0,*5A
1518706862.89,56481,12.06,73090.3,-8.97,-43.41,-43.21,0,*5E
1518706864.13,56482,12.06,73094.3,-8.97,-43.55,-43.15,0,*5F
1518706865.37,56483,12.06,73094.0,-8.99,-43.41,-43.15,0,*55
1518706866.6,56484,12.06,73090.8,-8.99,-43.41,-43.15,0,*52
1518706867.86,56485,12.06,73092.0,-8.99,-43.55,-43.15,0,*56
1518706869.1,56486,12.06,73092.0,-8.99,-43.41,-43.01,0,*55
1518706870.31,56487,12.06,73092.5,-8.97,-43.35,-43.01,0,*59
1518706871.52,56488,12.06,73092.8,-8.97,-43.41,-43.15,0,*50
1518706872.74,56489,12.06,73096.3,-8.97,-43.75,-43.41,0,*57
1518706874.02,56490,12.06,73092.0,-8.99,-44.01,-43.81,0,*59
1518706875.26,56491,12.06,73092.0,-9.03,-44.27,-44.07,0,*57
1518706876.53,56492,12.06,73094.3,-9.03,-44.27,-44.01,0,*52
1518706877.78,56493,12.06,73094.0,-9.03,-44.13,-43.87,0,*5D
1518706879.05,56494,12.06,73092.0,-9.03,-43.81,-43.49,0,*54
1518706880.31,56495,12.06,73090.3,-9.05,-44.13,-44.13,0,*57
1518706881.52,56496,12.06,73092.3,-9.05,-44.27,-44.07,0,*56
1518706882.76,56497,12.06,73088.8,-9.05,-43.87,-43.67,0,*5B
1518706884.02,56498,12.06,73090.8,-9.05,-44.01,-43.81,0,*55
1518706885.28,56499,12.06,73092.3,-9.05,-44.13,-43.81,0,*57
1518706886.52,56500,12.06,73092.3,-9.05,-43.81,-43.61,0,*54
1518706887.73,56501,12.06,73088.8,-9.09,-43.87,-43.75,0,*5A
1518706888.99,56502,12.06,73094.0,-9.07,-43.87,-43.55,0,*55
1518706890.2,56503,12.06,73092.3,-9.09,-43.87,-43.49,0,*57
1518706891.44,56504,12.06,73092.8,-9.05,-43.67,-43.49,0,*52
1518706892.67,56505,12.06,73092.0,-9.09,-43.75,-43.49,0,*5C
1518706893.91,56506,12.06,73090.0,-9.09,-43.75,-43.55,0,*52
1518706895.17,56507,12.06,73092.0,-9.07,-43.87,-43.67,0,*51
1518706896.44,56508,12.06,73090.8,-9.09,-43.67,-43.29,0,*54
1518706897.69,56509,12.06,73090.8,-9.09,-43.95,-43.67,0,*52
1518706898.95,56510,12.06,73092.8,-9.07,-43.75,-43.55,0,*5B
1518706900.2,56511,12.06,73092.8,-9.09,-43.75,-43.55,0,*54
1518706901.42,56512,12.06,73092.5,-9.09,-44.07,-43.75,0,*57
1518706902.66,56513,12.06,73092.8,-9.09,-43.87,-43.55,0,*5B
1518706903.91,56514,12.06,73092.3,-9.09,-43.75,-43.55,0,*51
1518706905.15,56515,12.06,73094.5,-9.09,-43.49,-43.29,0,*54
1518706906.39,56516,12.06,73088.3,-9.09,-43.35,-43.09,0,*5E
1518706907.64,56517,12.06,73094.5,-9.11,-43.61,-43.41,0,*5B
1518706908.89,56518,12.06,73090.8,-9.09,-43.75,-43.67,0,*5C
1518706910.11,56519,12.06,73092.5,-9.09,-43.95,-43.75,0,*50
1518706911.33,56520,12.06,73088.5,-9.09,-43.95,-43.75,0,*5A
1518706912.6,56521,12.06,73088.0,-9.11,-43.95,-43.55,0,*50
1518706913.86,56522,12.06,73088.5,-9.13,-43.81,-43.55,0,*54
1518706915.12,56523,12.06,73092.5,-9.11,-43.81,-43.75,0,*55
1518706916.42,56524,12.06,73094.0,-9.11,-43.81,-43.55,0,*50
1518706917.66,56525,12.06,73088.5,-9.11,-43.75,-43.35,0,*5C
1518706918.88,56526,12.06,73092.5,-9.13,-43.75,-43.41,0,*5E
1518706920.15,56527,12.06,73088.0,-9.11,-43.55,-43.35,0,*5C
1518706921.39,56528,12.06,73094.5,-9.13,-43.35,-43.21,0,*52
1518706922.6,56529,12.06,73094.3,-9.13,-43.15,-42.89,0,*52
1518706923.85,56530,12.06,73092.8,-9.11,-43.01,-42.89,0,*5D
1518706925.09,56531,12.06,73092.5,-9.11,-43.01,-42.89,0,*5C
1518706926.33,56532,12.06,73088.8,-9.11,-43.35,-43.15,0,*5C
1518706927.59,56533,12.06,73092.8,-9.11,-43.21,-43.01,0,*5D
1518706928.86,56534,12.06,73094.3,-9.11,-43.01,-42.69,0,*57
1518706930.08,56535,12.06,73088.8,-9.13,-43.41,-42.89,0,*5E
1518706931.29,56536,12.06,73090.0,-9.13,-43.35,-43.15,0,*5A
1518706932.55,56537,12.06,73092.3,-9.11,-43.21,-43.15,0,*5C
1518706933.79,56538,12.06,73094.3,-9.13,-43.21,-43.01,0,*54
1518706935.0,56539,12.06,73094.0,-9.13,-43.35,-43.15,0,*55
1518706936.29,56540,12.06,73094.8,-9.11,-43.55,-43.21,0,*58
1518706937.53,56541,12.06,73094.0,-9.11,-43.41,-43.15,0,*5B
1518706938.77,56542,12.06,73090.8,-9.13,-43.41,-43.21,0,*5D
1518706939.99,56543,12.06,73090.0,-9.13,-43.35,-43.15,0,*58
1518706941.23,56544,12.06,73088.5,-9.13,-43.55,-43.35,0,*5B
1518706942.5,56545,12.06,73094.3,-9.11,-43.81,-43.61,0,*50
1518706943.74,56546,12.06,73094.3,-9.13,-44.01,-43.95,0,*55
1518706944.95,56547,12.06,73092.5,-9.13,-43.95,-43.75,0,*50
1518706946.2,56548,12.06,73090.5,-9.13,-43.61,-43.55,0,*56
1518706947.47,56549,12.06,73090.3,-9.11,-43.75,-43.55,0,*50
1518706948.72,56550,12.06,73090.8,-9.13,-43.55,-43.35,0,*5E
1518706949.96,56551,12.06,73094.5,-9.13,-43.55,-43.35,0,*5F
1518706951.23,56552,12.06,73094.0,-9.15,-43.67,-43.41,0,*58
1518706952.46,56553,12.06,73092.5,-9.13,-43.41,-43.21,0,*5D
1518706953.71,56554,12.06,73090.5,-9.13,-43.61,-43.21,0,*58
1518706954.93,56555,12.06,73092.0,-9.13,-43.61,-43.41,0,*5F
1518706956.17,56556,12.06,73092.0,-9.15,-43.87,-43.61,0,*50
1518706957.43,56557,12.06,73090.8,-9.15,-44.01,-43.61,0,*58
1518706958.68,56558,12.06,73088.5,-9.15,-43.61,-43.41,0,*54
1518706959.94,56559,12.06,73090.8,-9.15,-43.49,-43.29,0,*51
1518706961.21,56560,12.06,73088.8,-9.15,-43.49,-43.29,0,*5B
1518706962.47,56561,12.06,73090.5,-9.15,-43.41,-43.09,0,*50
1518706963.77,56562,12.06,73092.0,-9.15,-43.29,-42.95,0,*59
1518706965.01,56563,12.06,73090.8,-9.13,-43.61,-43.55,0,*5F
1518706966.25,56564,12.06,73090.8,-9.17,-44.07,-43.87,0,*54
1518706967.54,56565,12.06,73088.5,-9.17,-44.01,-43.67,0,*5D
1518706968.84,56566,12.06,73086.5,-9.17,-44.01,-43.67,0,*5E
1518706970.07,56567,12.06,73090.0,-9.15,-43.87,-43.49,0,*58
1518706971.31,56568,12.06,73088.5,-9.19,-44.13,-43.87,0,*53
1518706972.58,56569,12.06,73090.0,-9.17,-44.01,-43.61,0,*57
1518706973.79,56570,12.06,73094.8,-9.19,-44.07,-43.75,0,*52
1518706975.0,56571,12.06,73088.3,-9.19,-44.07,-43.87,0,*5E
1518706976.25,56572,12.06,73094.3,-9.19,-44.13,-43.95,0,*5B
1518706977.51,56573,12.06,73092.5,-9.21,-43.95,-43.67,0,*55
1518706978.75,56574,12.06,73094.5,-9.21,-43.87,-43.75,0,*52
1518706979.99,56575,12.06,73092.5,-9.21,-44.07,-43.75,0,*5C
1518706981.23,56576,12.06,73092.0,-9.19,-43.87,-43.55,0,*59
1518706982.49,56577,12.06,73094.0,-9.21,-43.67,-43.49,0,*50
1518706983.76,56578,12.06,73092.5,-9.21,-43.67,-43.35,0,*54
1518706985.0,56579,12.06,73094.0,-9.23,-43.55,-43.35,0,*56
1518706986.24,56580,12.06,73092.0,-9.23,-43.95,-43.55,0,*5A
1518706987.45,56581,12.06,73094.5,-9.23,-43.95,-43.61,0,*5C
1518706988.71,56582,12.06,73094.5,-9.23,-43.81,-43.55,0,*5D
1518706989.94,56583,12.06,73092.0,-9.23,-43.81,-43.61,0,*5B
1518706991.18,56584,12.06,73094.5,-9.23,-44.01,-43.61,0,*53
1518706992.42,56585,12.06,73090.0,-9.27,-44.01,-43.75,0,*53
1518706993.66,56586,12.06,73090.5,-9.23,-43.75,-43.55,0,*52
1518706994.9,56587,12.06,73088.8,-9.23,-43.75,-43.55,0,*53
1518706996.15,56588,12.06,73088.5,-9.27,-44.01,-43.61,0,*5B
1518706997.39,56589,12.06,73088.0,-9.27,-43.81,-43.61,0,*55
1518706998.61,56590,12.06,73088.8,-9.27,-43.95,-43.61,0,*58
1518706999.85,56591,12.06,73088.8,-9.27,-43.75,-43.55,0,*50
1518707001.09,56592,12.06,73088.5,-9.23,-43.75,-43.55,0,*57
1518707002.33,56593,12.06,73092.8,-9.27,-43.81,-43.61,0,*5E
1518707003.57,56594,12.06,73088.3,-9.27,-43.95,-43.81,0,*52
1518707004.81,56595,12.06,73090.5,-9.27,-44.01,-43.75,0,*52
1518707006.07,56596,12.06,73092.8,-9.27,-44.13,-43.81,0,*59
1518707007.36,56597,12.06,73094.3,-9.29,-44.21,-43.81,0,*57
1518707008.63,56598,12.06,73094.0,-9.29,-44.07,-43.81,0,*5C
1518707009.89,56599,12.06,73094.5,-9.29,-44.07,-43.81,0,*5D
1518707011.16,56600,12.06,73092.5,-9.29,-44.01,-43.61,0,*56
1518707012.4,56601,12.06,73092.8,-9.31,-43.81,-43.61,0,*51
1518707013.64,56602,12.06,73090.8,-9.29,-43.87,-43.61,0,*5D
1518707014.91,56603,12.06,73094.8,-9.31,-44.01,-43.67,0,*5A
1518707016.15,56604,12.06,73096.0,-9.31,-44.07,-43.81,0,*53
1518707017.41,56605,12.06,73094.3,-9.29,-43.81,-43.61,0,*5C
1518707018.66,56606,12.06,73092.8,-9.31,-43.67,-43.61,0,*5E
1518707019.9,56607,12.06,73092.0,-9.31,-43.81,-43.61,0,*57
1518707021.11,56608,12.06,73092.8,-9.31,-43.87,-43.49,0,*54
1518707022.35,56609,12.06,73092.3,-9.31,-44.01,-43.61,0,*56
1518707023.57,56610,12.06,73090.5,-9.31,-43.87,-43.61,0,*57
1518707024.81,56611,12.06,73092.3,-9.31,-43.81,-43.61,0,*50
1518707026.05,56612,12.06,73094.8,-9.33,-43.95,-43.75,0,*51
1518707027.32,56613,12.06,73094.3,-9.33,-44.07,-43.67,0,*5F
1518707028.56,56614,12.06,73092.0,-9.35,-44.13,-43.95,0,*56
1518707029.8,56615,12.06,73092.5,-9.35,-44.13,-43.87,0,*54
1518707031.01,56616,12.06,73092.5,-9.35,-44.07,-43.87,0,*52
1518707032.27,56617,12.06,73088.8,-9.33,-44.13,-43.87,0,*50
1518707033.51,56618,12.06,73092.3,-9.35,-44.13,-43.75,0,*54
1518707034.74,56619,12.06,73090.8,-9.35,-44.13,-43.87,0,*58
1518707036.01,56620,12.06,73090.0,-9.37,-44.13,-43.75,0,*5D
1518707037.25,56621,12.06,73094.8,-9.37,-43.95,-43.75,0,*55
1518707038.52,56622,12.06,73090.0,-9.37,-44.21,-43.95,0,*50
1518707039.81,56623,12.06,73090.3,-9.37,-44.33,-44.13,0,*5B
1518707041.05,56624,12.06,73092.8,-9.39,-44.13,-43.75,0,*57
1518707042.31,56625,12.06,73092.5,-9.37,-43.81,-43.75,0,*54
1518707043.56,56626,12.06,73092.0,-9.39,-43.75,-43.55,0,*50
1518707044.8,56627,12.06,73092.3,-9.39,-43.75,-43.55,0,*51
1518707046.07,56628,12.06,73092.3,-9.37,-43.61,-43.29,0,*5E
1518707047.36,56629,12.06,73094.0,-9.37,-43.55,-43.29,0,*58
1518707048.62,56630,12.06,73094.8,-9.37,-43.61,-43.41,0,*59
1518707049.86,56631,12.06,73092.3,-9.39,-43.61,-43.29,0,*58
1518707051.09,56632,12.06,73092.5,-9.39,-43.35,-43.29,0,*5A
1518707052.35,56633,12.06,73094.0,-9.39,-43.55,-43.29,0,*5D
1518707053.6,56634,12.06,73096.0,-9.39,-43.75,-43.55,0,*53
1518707054.83,56635,12.06,73094.8,-9.39,-43.81,-43.61,0,*5E
1518707056.05,56636,12.06,73090.5,-9.39,-43.75,-43.61,0,*56
1518707057.27,56637,12.06,73094.8,-9.39,-43.95,-43.61,0,*59
1518707058.51,56638,12.06,73092.0,-9.39,-44.01,-43.61,0,*5C
1518707059.75,56639,12.06,73088.8,-9.41,-44.07,-43.61,0,*54
1518707061.02,56640,12.06,73090.5,-9.41,-43.87,-43.67,0,*53
1518707062.29,56641,12.06,73090.3,-9.41,-43.87,-43.67,0,*52
1518707063.53,56642,12.06,73094.5,-9.41,-43.87,-43.61,0,*57
1518707064.83,56643,12.06,73092.5,-9.41,-43.81,-43.67,0,*56
1518707066.04,56644,12.06,73092.5,-9.43,-43.87,-43.61,0,*53
1518707067.31,56645,12.06,73094.0,-9.43,-44.01,-43.67,0,*5D
1518707068.56,56646,12.06,73092.0,-9.43,-44.07,-43.67,0,*58
1518707069.82,56647,12.06,73090.3,-9.43,-44.01,-43.81,0,*57
1518707071.06,56648,12.06,73090.3,-9.43,-44.07,-43.81,0,*5E
1518707072.29,56649,12.06,73090.3,-9.43,-44.07,-43.81,0,*5F
1518707073.56,56650,12.06,73092.0,-9.43,-44.01,-43.67,0,*59
1518707074.8,56651,12.06,73092.0,-9.43,-43.87,-43.67,0,*51
1518707076.05,56652,12.06,73088.3,-9.45,-44.07,-43.75,0,*58
1518707077.34,56653,12.06,73090.5,-9.45,-44.13,-43.67,0,*5F
1518707078.59,56654,12.06,73092.3,-9.49,-43.95,-43.67,0,*5D
1518707079.86,56655,12.06,73094.8,-9.45,-44.07,-43.67,0,*5C
1518707081.13,56656,12.06,73092.5,-9.45,-43.87,-43.55,0,*51
1518707082.4,56657,12.06,73088.3,-9.49,-43.55,-43.29,0,*58
1518707083.65,56658,12.06,73090.3,-9.49,-43.49,-43.21,0,*52
1518707084.92,56659,12.06,73092.8,-9.45,-43.67,-43.41,0,*55
1518707086.18,56660,12.06,73094.8,-9.49,-43.55,-43.41,0,*52
1518707087.45,56661,12.06,73092.8,-9.45,-43.75,-43.29,0,*53
1518707088.7,56662,12.06,73094.8,-9.49,-43.49,-43.21,0,*5B
1518707089.96,56663,12.06,73094.8,-9.45,-43.29,-43.01,0,*52
1518707091.24,56664,12.06,73092.0,-9.49,-43.55,-43.29,0,*58
1518707092.49,56665,12.06,73090.8,-9.49,-43.87,-43.67,0,*5C
1518707093.72,56666,12.06,73088.3,-9.49,-43.75,-43.41,0,*56
1518707094.98,56667,12.06,73092.3,-9.49,-43.87,-43.55,0,*5F
1518707096.25,56668,12.06,73094.0,-9.49,-43.55,-43.21,0,*5C
1518707097.48,56669,12.06,73088.8,-9.49,-43.41,-43.01,0,*5A
1518707098.76,56670,12.06,73088.0,-9.49,-43.29,-43.09,0,*54
1518707100.03,56671,12.06,73088.8,-9.49,-43.55,-43.21,0,*54
1518707101.29,56672,12.06,73092.8,-9.49,-43.67,-43.41,0,*50
1518707102.54,56673,12.06,73092.3,-9.49,-43.49,-43.29,0,*53
1518707103.8,56674,12.06,73094.3,-9.49,-43.29,-43.01,0,*58
1518707105.05,56675,12.06,73092.3,-9.49,-43.49,-43.21,0,*5D
1518707106.3,56676,12.06,73092.3,-9.49,-43.21,-43.01,0,*52
1518707107.53,56677,12.06,73092.5,-9.49,-43.41,-43.01,0,*55
1518707108.72,56678,12.06,73094.0,-9.51,-43.15,-42.89,0,*53
1518707110.0,56679,12.06,73090.5,-9.49,-43.09,-42.69,0,*58
1518707111.26,56680,12.06,73094.8,-9.49,-43.01,-42.69,0,*56
1518707112.52,56681,12.06,73094.0,-9.49,-43.09,-42.63,0,*55
1518707113.8,56682,12.06,73092.8,-9.49,-43.09,-42.83,0,*58
1518707115.07,56683,12.06,73092.5,-9.49,-43.09,-42.83,0,*59
1518707116.34,56684,12.06,73092.8,-9.49,-43.21,-42.83,0,*54
1518707117.62,56685,12.06,73094.5,-9.49,-43.09,-42.83,0,*5F
1518707118.88,56686,12.06,73092.8,-9.49,-43.09,-42.63,0,*52
1518707120.12,56687,12.06,73092.5,-9.49,-43.01,-42.63,0,*5B
1518707121.39,56688,12.06,73096.3,-9.45,-43.01,-42.69,0,*52
1518707122.62,56689,12.06,73092.8,-9.49,-42.89,-42.63,0,*54
1518707123.86,56690,12.06,73094.5,-9.49,-43.01,-42.63,0,*5D
1518707125.14,56691,12.06,73092.5,-9.49,-43.09,-42.69,0,*5E
1518707126.39,56692,12.06,73096.0,-9.49,-43.41,-43.21,0,*5C
1518707127.68,56693,12.06,73094.3,-9.45,-43.55,-43.21,0,*54
1518707128.93,56694,12.06,73094.8,-9.49,-43.29,-43.01,0,*56
1518707130.2,56695,12.06,73094.3,-9.45,-43.29,-42.89,0,*5A
1518707131.45,56696,12.06,73094.3,-9.49,-43.29,-42.89,0,*55
1518707132.7,56697,12.06,73096.0,-9.49,-43.29,-42.89,0,*54
1518707133.95,56698,12.06,73092.8,-9.49,-43.41,-43.09,0,*5C
1518707135.21,56699,12.06,73092.3,-9.49,-43.55,-43.41,0,*54
1518707136.47,56700,12.06,73092.5,-9.49,-43.67,-43.41,0,*54
1518707137.74,56701,12.06,73094.5,-9.49,-43.55,-43.21,0,*52
1518707138.99,56702,12.06,73092.8,-9.49,-43.49,-43.29,0,*54
1518707140.22,56703,12.06,73094.5,-9.51,-43.55,-43.15,0,*5E
1518707141.42,56704,12.06,73094.5,-9.51,-43.49,-43.15,0,*54
1518707142.68,56705,12.06,73096.8,-9.53,-43.49,-43.09,0,*5A
1518707143.91,56706,12.06,73094.5,-9.51,-43.49,-43.09,0,*5B
1518707145.14,56707,12.06,73092.0,-9.51,-43.35,-43.09,0,*51
1518707146.33,56708,12.06,73094.8,-9.51,-43.15,-42.89,0,*55
1518707147.59,56709,12.06,73098.3,-9.51,-43.29,-42.95,0,*56
1518707148.79,56710,12.06,73096.5,-9.51,-43.49,-43.15,0,*51
1518707149.99,56711,12.06,73094.8,-9.51,-43.15,-42.89,0,*5D
1518707151.24,56712,12.06,73092.3,-9.51,-43.29,-42.95,0,*5C
1518707152.44,56713,12.06,73092.3,-9.51,-43.15,-42.89,0,*5F
1518707153.64,56714,12.06,73092.0,-9.51,-43.15,-42.75,0,*5B
1518707154.89,56715,12.06,73094.5,-9.51,-43.29,-42.69,0,*58
1518707156.12,56716,12.06,73092.8,-9.51,-43.35,-42.95,0,*55
1518707157.39,56717,12.06,73098.3,-9.49,-43.55,-43.29,0,*5D
1518707158.67,56718,12.06,73096.5,-9.49,-43.55,-43.21,0,*5A
1518707159.92,56719,12.06,73090.8,-9.51,-43.55,-43.09,0,*58
1518707161.12,56720,12.06,73094.0,-9.51,-43.35,-42.89,0,*5D
1518707162.35,56721,12.06,73092.5,-9.51,-43.29,-42.75,0,*52
1518707163.6,56722,12.06,73092.8,-9.51,-43.29,-42.95,0,*5F
1518707164.8,56723,12.06,73094.0,-9.51,-43.49,-42.89,0,*55
1518707166.06,56724,12.06,73092.8,-9.53,-43.29,-42.89,0,*56
1518707167.29,56725,12.06,73092.8,-9.51,-43.49,-43.09,0,*5A
1518707168.52,56726,12.06,73092.5,-9.51,-43.49,-42.95,0,*5D
1518707169.77,56727,12.06,73090.8,-9.53,-43.35,-43.09,0,*51
1518707170.98,56728,12.06,73094.0,-9.51,-43.75,-43.35,0,*57
1518707172.21,56729,12.06,73092.0,-9.51,-43.75,-43.29,0,*5B
1518707173.43,56730,12.06,73094.8,-9.51,-43.55,-43.15,0,*5E
1518707174.65,56731,12.06,73094.3,-9.51,-43.15,-42.69,0,*51
1518707175.91,56732,12.06,73094.3,-9.51,-43.09,-42.69,0,*5F
1518707177.17,56733,12.06,73092.5,-9.49,-43.01,-42.69,0,*5F
1518707178.45,56734,12.06,73094.5,-9.53,-43.09,-42.69,0,*5B
1518707179.68,56735,12.06,73092.8,-9.51,-43.09,-42.75,0,*55
1518707180.9,56736,12.06,73092.3,-9.51,-42.89,-42.69,0,*52
1518707182.13,56737,12.06,73094.0,-9.51,-42.89,-42.57,0,*5E
1518707183.4,56738,12.06,73094.5,-9.53,-43.09,-42.57,0,*5A
1518707184.64,56739,12.06,73092.5,-9.51,-43.09,-42.75,0,*59
1518707185.89,56740,12.06,73094.0,-9.51,-42.95,-42.69,0,*5E
1518707187.14,56741,12.06,73092.8,-9.51,-43.09,-42.57,0,*56
1518707188.36,56742,12.06,73092.8,-9.51,-42.89,-42.57,0,*5C
1518707189.61,56743,12.06,73092.8,-9.51,-42.95,-42.57,0,*50
1518707190.82,56744,12.06,73092.8,-9.51,-43.15,-42.75,0,*5E
1518707192.09,56745,12.06,73092.3,-9.49,-43.09,-42.83,0,*52
1518707193.33,56746,12.06,73096.8,-9.49,-43.01,-42.63,0,*57
1518707194.58,56747,12.06,73092.5,-9.45,-42.89,-42.63,0,*5B
1518707195.81,56748,12.06,73094.3,-9.49,-42.89,-42.63,0,*58
1518707197.06,56749,12.06,73096.0,-9.49,-43.09,-42.89,0,*54
1518707198.28,56750,12.06,73094.5,-9.51,-43.15,-42.69,0,*56
1518707199.51,56751,12.06,73094.5,-9.49,-42.89,-42.63,0,*50
1518707200.79,56752,12.06,73094.5,-9.49,-43.09,-42.83,0,*54
1518707202.07,56753,12.06,73094.5,-9.49,-43.09,-42.69,0,*51
1518707203.31,56754,12.06,73094.5,-9.49,-43.01,-42.63,0,*54
1518707204.52,56755,12.06,73094.5,-9.51,-43.01,-42.63,0,*5C
1518707205.75,56756,12.06,73092.5,-9.49,-42.89,-42.63,0,*57
1518707207.01,56757,12.06,73090.5,-9.49,-43.01,-42.69,0,*5D
1518707208.29,56758,12.06,73094.3,-9.49,-43.09,-42.83,0,*5E
1518707209.56,56759,12.06,73096.5,-9.49,-43.09,-42.83,0,*5F
1518707210.82,56760,12.06,73092.3,-9.49,-43.29,-43.01,0,*5C
1518707212.07,56761,12.06,73092.0,-9.49,-43.41,-43.21,0,*51
1518707213.32,56762,12.06,73096.0,-9.51,-43.55,-43.29,0,*56
1518707214.57,56763,12.06,73090.3,-9.49,-43.29,-43.01,0,*5F
1518707215.82,56764,12.06,73094.5,-9.49,-43.29,-42.89,0,*59
1518707217.07,56765,12.06,73090.0,-9.49,-43.29,-43.01,0,*59
1518707218.33,56766,12.06,73094.5,-9.49,-43.41,-43.09,0,*5C
1518707219.55,56767,12.06,73094.8,-9.51,-43.55,-43.15,0,*5C
1518707220.81,56768,12.06,73094.8,-9.49,-43.49,-43.21,0,*50
1518707222.02,56769,12.06,73094.8,-9.51,-43.61,-43.35,0,*57
1518707223.28,56770,12.06,73094.0,-9.53,-43.49,-43.09,0,*58
1518707224.53,56771,12.06,73092.0,-9.51,-43.29,-42.95,0,*59
1518707225.76,56772,12.06,73094.0,-9.51,-43.29,-42.89,0,*57
1518707226.98,56773,12.06,73094.8,-9.51,-43.15,-42.69,0,*57
1518707228.2,56774,12.06,73094.5,-9.53,-43.15,-42.89,0,*5C
1518707229.46,56775,12.06,73096.0,-9.51,-43.29,-42.95,0,*5D
1518707230.65,56776,12.06,73094.3,-9.51,-43.15,-42.89,0,*5C
1518707231.94,56777,12.06,73094.3,-9.53,-43.09,-42.69,0,*5C
1518707233.14,56778,12.06,73096.0,-9.51,-43.15,-42.75,0,*51
1518707234.39,56779,12.06,73092.8,-9.53,-42.89,-42.57,0,*56
1518707235.62,56780,12.06,73092.5,-9.51,-43.09,-42.75,0,*5B
1518707236.85,56781,12.06,73092.5,-9.51,-43.15,-42.69,0,*5A
1518707238.07,56782,12.06,73092.8,-9.51,-43.09,-42.89,0,*5A
1518707239.3,56783,12.06,73096.0,-9.51,-43.09,-42.75,0,*58
1518707240.56,56784,12.06,73094.8,-9.51,-43.09,-42.69,0,*52
1518707241.81,56785,12.06,73092.0,-9.51,-42.95,-42.69,0,*57
1518707243.06,56786,12.06,73094.5,-9.51,-43.09,-42.57,0,*5D
1518707244.3,56787,12.06,73092.5,-9.49,-43.01,-42.63,0,*5A
1518707245.53,56788,12.06,73092.3,-9.49,-42.89,-42.63,0,*54
1518707246.78,56789,12.06,73094.3,-9.51,-42.95,-42.57,0,*56
1518707248.0,56790,12.06,73092.5,-9.51,-42.89,-42.57,0,*53
1518707249.25,56791,12.06,73092.8,-9.51,-42.95,-42.57,0,*5F
1518707250.51,56792,12.06,73096.8,-9.51,-42.95,-42.57,0,*5C
1518707251.76,56793,12.06,73098.3,-9.51,-42.95,-42.57,0,*5D
1518707253.02,56794,12.06,73094.8,-9.49,-43.01,-42.69,0,*52
1518707254.29,56795,12.06,73096.0,-9.49,-43.09,-42.83,0,*5F
1518707255.54,56796,12.06,73098.8,-9.49,-43.29,-42.89,0,*54
1518707256.77,56797,12.06,73094.3,-9.49,-43.41,-42.89,0,*5B
1518707258.0,56798,12.06,73094.0,-9.51,-43.49,-43.09,0,*5C
1518707259.2,56799,12.06,73092.5,-9.51,-43.15,-42.89,0,*5D
1518707260.39,56800,12.06,73094.3,-9.51,-43.15,-42.89,0,*52
1518707261.63,56801,12.06,73092.0,-9.49,-43.01,-42.63,0,*5B
1518707262.89,56802,12.06,73092.8,-9.49,-43.09,-42.63,0,*50
1518707264.17,56803,12.06,73092.0,-9.49,-43.09,-42.83,0,*5F
1518707265.44,56804,12.06,73092.8,-9.49,-43.21,-42.69,0,*56
1518707266.69,56805,12.06,73092.8,-9.49,-43.21,-42.89,0,*59
1518707267.97,56806,12.06,73094.5,-9.49,-43.09,-42.69,0,*5E
1518707269.2,56807,12.06,73096.0,-9.51,-43.29,-42.75,0,*59
1518707270.39,56808,12.06,73090.8,-9.51,-43.15,-42.89,0,*5A
1518707271.63,56809,12.06,73092.8,-9.53,-43.15,-42.75,0,*5A
1518707272.85,56810,12.06,73094.3,-9.51,-43.15,-42.69,0,*5D
1518707274.1,56811,12.06,73092.8,-9.51,-43.09,-42.69,0,*51
1518707275.34,56812,12.06,73096.0,-9.49,-43.01,-42.63,0,*59
1518707276.58,56813,12.06,73094.3,-9.49,-43.01,-42.63,0,*58
1518707277.86,56814,12.06,73096.5,-9.53,-42.95,-42.57,0,*5F
1518707279.11,56815,12.06,73094.5,-9.51,-43.09,-42.69,0,*55
1518707280.35,56816,12.06,73098.5,-9.49,-43.01,-42.63,0,*5D
1518707281.61,56817,12.06,73092.0,-9.49,-43.01,-42.69,0,*56
1518707282.88,56818,12.06,73096.0,-9.49,-43.09,-42.83,0,*55
1518707284.16,56819,12.06,73092.8,-9.49,-43.09,-42.83,0,*54
1518707285.42,56820,12.06,73092.5,-9.49,-43.09,-42.63,0,*50
1518707286.69,56821,12.06,73094.8,-9.49,-43.21,-42.69,0,*51
1518707287.94,56822,12.06,73098.0,-9.49,-43.29,-42.89,0,*54
1518707289.22,56823,12.06,73094.8,-9.49,-43.55,-43.09,0,*57
1518707290.45,56824,12.06,73094.8,-9.51,-43.29,-42.89,0,*5B
1518707291.67,56825,12.06,73094.8,-9.51,-43.29,-42.89,0,*5A
1518707292.87,56826,12.06,73092.5,-9.51,-43.15,-42.75,0,*55
1518707294.1,56827,12.06,73092.0,-9.51,-43.29,-42.89,0,*58
1518707295.35,56828,12.06,73092.8,-9.51,-43.09,-42.69,0,*5B
1518707296.59,56829,12.06,73094.0,-9.49,-43.01,-42.63,0,*51
1518707297.82,56830,12.06,73094.5,-9.49,-42.89,-42.63,0,*58